FW5974 Weather Reports


Display with metric or nautical units.
time (UTC)temp
F
wind
direction
speed
MPH
gust
MPH
rain 1hr
in
rain 24hr
in
rain mn
in
humidity
%
barometer
mb
20260510230017 61 248 0.0 1.0 0.00 0.01 0.01 72 1089.2
20260510225115 61 255 0.0 0.0 0.00 0.01 0.01 73 1089.1
20260510215216 65 152 0.0 0.0 0.00 0.05 0.01 63 1088.0
20260510214315 66 170 0.0 0.0 0.00 0.06 0.01 61 1087.8
20260510213318 67 237 0.0 3.0 0.00 0.07 0.01 56 1087.5
20260510212331 67 197 0.0 2.0 0.00 0.09 0.01 55 1087.2
20260510210331 69 197 0.0 0.0 0.00 0.12 0.01 52 1087.4
20260510205333 68 225 1.0 6.0 0.00 0.14 0.01 53 1087.3
20260510204416 67 272 4.0 7.0 0.00 0.16 0.01 53 1087.2
20260510203416 67 277 5.0 7.0 0.00 0.18 0.01 53 1087.3
20260510201416 68 251 3.0 7.0 0.00 0.20 0.01 52 1087.2
20260510200433 68 228 2.0 6.0 0.00 0.21 0.01 54 1087.0
20260510195417 69 249 3.0 7.0 0.00 0.22 0.01 56 1087.3
20260510194514 68 267 0.0 4.0 0.00 0.23 0.01 59 1087.4
20260510192630 66 274 4.0 7.0 0.00 0.24 0.01 58 1087.6
20260510191615 66 266 7.0 10.0 0.00 0.24 0.01 59 1087.6
20260510190634 66 263 3.0 6.0 0.00 0.24 0.01 59 1087.4
20260510185717 67 254 5.0 10.0 0.00 0.24 0.01 59 1087.6
20260510183732 67 263 5.0 8.0 0.00 0.25 0.01 58 1087.6
20260510182730 67 189 0.0 0.0 0.00 0.25 0.01 57 1087.5
20260510181815 67 211 1.0 5.0 0.00 0.25 0.01 56 1087.6
20260510175932 66 269 0.0 4.0 0.00 0.27 0.01 58 1087.9
20260510175015 67 272 6.0 11.0 0.00 0.28 0.01 57 1087.8
20260510174016 66 238 5.0 9.0 0.00 0.30 0.01 56 1087.8
20260510172030 67 241 4.0 8.0 0.00 0.32 0.01 58 1088.0
20260510171030 66 199 3.0 11.0 0.00 0.34 0.01 61 1088.0
20260510170015 66 269 7.0 12.0 0.00 0.35 0.01 60 1088.0
20260510165932 66 281 8.0 13.0 0.00 0.36 0.01 61 1088.1
20260510164931 67 292 6.0 11.0 0.00 0.37 0.01 61 1088.0
20260510163933 66 239 3.0 9.0 0.00 0.38 0.01 63 1088.3
20260510162931 66 184 4.0 11.0 0.00 0.40 0.01 63 1088.3
20260510161916 65 139 2.0 10.0 0.00 0.41 0.01 65 1088.2
20260510160032 64 241 1.0 3.0 0.00 0.43 0.01 66 1088.4
20260510155015 64 253 2.0 6.0 0.01 0.44 0.01 68 1088.3
20260510154032 63 150 0.0 4.0 0.01 0.45 0.01 70 1088.4
20260510153032 62 186 0.0 5.0 0.01 0.46 0.01 72 1088.7
20260510152931 62 181 0.0 3.0 0.01 0.46 0.01 71 1088.7
20260510152015 61 205 0.0 1.0 0.01 0.47 0.01 73 1088.8
20260510151032 61 215 1.0 5.0 0.01 0.47 0.01 74 1088.6
20260510150116 61 174 0.0 4.0 0.01 0.48 0.01 75 1088.7
20260510145134 61 184 0.0 0.0 0.00 0.47 0.00 78 1088.7
20260510144216 59 239 0.0 2.0 0.00 0.48 0.00 82 1088.7
20260510143313 58 90 0.0 0.0 0.00 0.48 0.00 84 1089.0
20260510142315 57 290 2.0 5.0 0.00 0.49 0.00 86 1089.1
20260510141332 56 185 0.0 0.0 0.00 0.49 0.00 87 1089.2
20260510140332 55 192 0.0 0.0 0.00 0.50 0.00 89 1089.2
20260510135414 54 249 1.0 3.0 0.00 0.50 0.00 90 1089.1
20260510133431 53 238 0.0 2.0 0.00 0.51 0.00 92 1089.1
20260510131414 52 269 4.0 6.0 0.00 0.52 0.00 94 1089.0
20260510130433 52 218 1.0 4.0 0.00 0.53 0.00 95 1089.1
20260510125430 52 220 0.0 3.0 0.00 0.53 0.00 95 1089.0
20260510124515 52 249 1.0 3.0 0.00 0.54 0.00 95 1089.0
20260510123531 51 247 3.0 7.0 0.00 0.54 0.00 97 1089.0
20260510122630 51 258 0.0 3.0 0.00 0.54 0.00 97 1089.0
20260510121631 51 180 0.0 0.0 0.00 0.55 0.00 97 1089.0
20260510120630 50 176 0.0 0.0 0.00 0.55 0.00 97 1089.0
20260510114633 50 234 0.0 0.0 0.00 0.56 0.00 99 1088.8
20260510113631 50 270 1.0 4.0 0.00 0.56 0.00 99 1088.9
20260510112713 50 225 0.0 3.0 0.00 0.56 0.00 100 1088.8
20260510111716 50 166 0.0 0.0 0.00 0.56 0.00 100 1088.7
20260510105731 49 176 0.0 1.0 0.00 0.56 0.00 99 1088.7
20260510103831 49 187 0.0 0.0 0.00 0.56 0.00 100 1088.2
20260510102917 49 187 0.0 0.0 0.00 0.56 0.00 100 1088.2
20260510101931 49 270 0.0 0.0 0.00 0.56 0.00 99 1088.1
20260510100014 48 270 0.0 0.0 0.00 0.56 0.00 100 1087.8
20260510095030 48 180 0.0 0.0 0.00 0.56 0.00 100 1087.4
20260510094030 48 213 0.0 0.0 0.00 0.56 0.00 100 1087.8
20260510093114 47 127 0.0 0.0 0.00 0.56 0.00 100 1087.4
20260510092130 46 113 0.0 1.0 0.00 0.56 0.00 100 1087.5
20260510091131 46 270 0.0 0.0 0.00 0.56 0.00 99 1087.5
20260510090215 46 270 0.0 0.0 0.00 0.56 0.00 99 1087.6
20260510085232 46 270 0.0 0.0 0.00 0.56 0.00 99 1087.6
20260510084230 46 270 0.0 0.0 0.00 0.56 0.00 100 1087.7
20260510083231 46 270 0.0 0.0 0.00 0.56 0.00 100 1087.7
20260510082232 46 270 0.0 0.0 0.00 0.56 0.00 99 1087.6
20260510080316 45 270 0.0 0.0 0.00 0.56 0.00 99 1087.4
20260510075330 46 270 0.0 0.0 0.00 0.56 0.00 100 1087.4
20260510073414 46 270 0.0 0.0 0.00 0.56 0.00 100 1087.4
20260510072430 46 270 0.0 0.0 0.00 0.56 0.00 100 1087.4
20260510071416 46 270 0.0 0.0 0.00 0.56 0.00 99 1087.5
20260510071333 46 270 0.0 0.0 0.00 0.56 0.00 100 1087.5
20260510070332 46 270 0.0 0.0 0.00 0.56 0.00 99 1087.4
20260510065415 46 270 0.0 0.0 0.00 0.56 0.00 100 1087.5
20260510064430 46 270 0.0 0.0 0.00 0.56 0.00 100 1087.6
20260510063431 46 270 0.0 0.0 0.00 0.56 0.00 100 1087.6
20260510062430 46 270 0.0 0.0 0.00 0.56 0.00 99 1087.4
20260510061515 46 270 0.0 0.0 0.00 0.56 0.00 100 1087.6
20260510060532 46 270 0.0 0.0 0.00 0.56 0.00 100 1087.6
20260510055514 45 270 0.0 0.0 0.00 0.56 0.00 100 1087.8
20260510054529 46 270 0.0 0.0 0.00 0.56 0.00 100 1087.9
20260510053530 45 270 0.0 0.0 0.00 0.56 0.00 100 1087.7
20260510052613 46 270 0.0 0.0 0.00 0.56 0.00 99 1087.7
20260510051629 45 270 0.0 0.0 0.00 0.56 0.00 99 1087.8
20260510050633 45 270 0.0 0.0 0.00 0.56 0.00 100 1088.0
20260510045714 45 270 0.0 0.0 0.00 0.56 0.00 99 1087.8
20260510044731 45 270 0.0 0.0 0.00 0.56 0.00 100 1088.1
20260510043732 45 270 0.0 0.0 0.00 0.56 0.00 100 1088.1
20260510042714 45 270 0.0 0.0 0.00 0.56 0.00 99 1088.3
20260510041731 45 270 0.0 0.0 0.00 0.56 0.00 99 1088.1
20260510041629 45 270 0.0 0.0 0.00 0.56 0.00 98 1088.1
20260510040715 45 270 0.0 0.0 0.00 0.56 0.00 99 1088.1
20260510040615 45 270 0.0 0.0 0.00 0.56 0.00 99 1088.0
20260510035639 45 270 0.0 0.0 0.00 0.56 0.56 98 1088.0
20260510034723 45 270 0.0 0.0 0.00 0.56 0.56 99 1088.0
20260510033724 45 270 0.0 0.0 0.00 0.56 0.56 99 1088.3
20260510032741 45 270 0.0 0.0 0.00 0.56 0.56 99 1088.5
20260510032624 45 270 0.0 0.0 0.00 0.56 0.56 99 1088.5
20260510030626 45 270 0.0 0.0 0.00 0.56 0.56 98 1088.6
20260510025640 45 270 0.0 0.0 0.00 0.56 0.56 99 1088.7
20260510024725 45 270 0.0 0.0 0.00 0.56 0.56 99 1088.7
20260510022741 45 270 0.0 0.0 0.00 0.56 0.56 98 1089.0
20260510021839 45 270 0.0 0.0 0.00 0.56 0.56 99 1088.9
20260510020842 45 270 0.0 0.0 0.00 0.56 0.56 98 1088.9
20260510014926 45 270 0.0 0.0 0.00 0.56 0.56 98 1089.2
20260510013942 45 270 0.0 0.0 0.00 0.56 0.56 99 1089.0
20260510013024 45 315 0.0 0.0 0.00 0.56 0.56 99 1089.0
20260510012040 45 315 0.0 0.0 0.00 0.56 0.56 98 1088.8
20260510011125 45 315 0.0 0.0 0.00 0.56 0.56 99 1088.9
20260510010140 45 315 0.0 0.0 0.00 0.56 0.56 99 1088.9
20260510004141 45 315 0.0 0.0 0.00 0.56 0.56 99 1088.8
20260510002241 45 38 0.0 0.0 0.00 0.56 0.56 99 1088.8
20260510001242 45 90 0.0 0.0 0.00 0.56 0.56 98 1088.7
20260510000243 45 90 0.0 0.0 0.00 0.56 0.56 99 1088.7
20260509235239 45 90 0.0 0.0 0.00 0.56 0.56 97 1088.8
20260509234240 45 90 0.0 0.0 0.00 0.56 0.56 97 1088.7
20260509232342 45 90 0.0 0.0 0.01 0.56 0.56 98 1088.5
20260509231323 44 90 0.0 0.0 0.02 0.56 0.56 97 1088.4